Terug naar catalogus

UNIFORM 1

ActiefMilitairSSO
NORAD 39767·PAYLOAD·🇯🇵 Japan

Gelanceerd May 24, 2014 vanaf Tanegashima Space Center

Loading…

Volgende Passages (komende 24 uur)

TLE

VersSource: Space-Track

Epoch: Sep 14, 2026, 05:41 UTC

1 39767U 14029B   26257.23701730  .00001691  00000-0  15530-3 0  9997
2 39767  97.8068 354.3355 0005631  28.6415 331.5115 14.96179770667538

Volg UNIFORM 1 in realtime met AllMySat

Download on the App Store